• In Österreich
  • Länderverzeichnis
  • Für 7 Tage
  • Wassertemperatur
  • Satellitenkarten
  • Wetterkarte
  • News
  • Widgets
  • user-avatar
    Anmelden

    Stündliche Wetter Chiredzi

    Heute, 21 Oktober, Sonntag

    Zeit Temperatur Niederschläge Wind Luftdruck Luftfeuchtigkeit
    00:00 +21°C° 0.1 mm 7 m/S 733 mmHg 68%
    01:00 +21°C° 0.1 mm 7 m/S 733 mmHg 69%
    02:00 +20°C° 0.1 mm 6 m/S 733 mmHg 70%
    03:00 +20°C° 0.1 mm 6 m/S 733 mmHg 69%
    04:00 +20°C° 0.1 mm 6 m/S 734 mmHg 69%
    05:00 +19°C° 0.1 mm 6 m/S 734 mmHg 68%
    06:00 +19°C° 0 mm 6 m/S 734 mmHg 68%
    07:00 +19°C° 0 mm 5 m/S 735 mmHg 68%
    08:00 +19°C° 0 mm 5 m/S 735 mmHg 68%
    09:00 +20°C° 0 mm 6 m/S 735 mmHg 64%
    10:00 +21°C° 0 mm 6 m/S 735 mmHg 61%
    11:00 +22°C° 0 mm 6 m/S 735 mmHg 58%
    12:00 +22°C° 0 mm 6 m/S 735 mmHg 53%
    13:00 +23°C° 0 mm 6 m/S 734 mmHg 48%
    14:00 +25°C° 0 mm 5 m/S 734 mmHg 43%
    15:00 +25°C° 0 mm 5 m/S 734 mmHg 42%
    16:00 +25°C° 0 mm 5 m/S 734 mmHg 40%
    17:00 +25°C° 0 mm 5 m/S 733 mmHg 39%
    18:00 +23°C° 0 mm 5 m/S 734 mmHg 41%
    19:00 +22°C° 0 mm 5 m/S 734 mmHg 43%
    20:00 +21°C° 0 mm 5 m/S 735 mmHg 45%
    21:00 +20°C° 0 mm 5 m/S 735 mmHg 49%
    22:00 +19°C° 0 mm 5 m/S 735 mmHg 52%
    23:00 +17°C° 0 mm 5 m/S 736 mmHg 55%

    Morgen, 22 Oktober, Montag

    Zeit Temperatur Niederschläge Wind Luftdruck Luftfeuchtigkeit
    00:00 +17°C° 0 mm 5 m/S 735 mmHg 58%
    01:00 +17°C° 0 mm 4 m/S 735 mmHg 60%
    02:00 +15°C° 0 mm 4 m/S 735 mmHg 62%
    03:00 +15°C° 0 mm 4 m/S 735 mmHg 65%
    04:00 +14°C° 0 mm 3 m/S 735 mmHg 68%
    05:00 +14°C° 0 mm 3 m/S 736 mmHg 70%
    06:00 +15°C° 0 mm 4 m/S 736 mmHg 66%
    07:00 +17°C° 0 mm 4 m/S 737 mmHg 61%
    08:00 +17°C° 0 mm 5 m/S 737 mmHg 57%
    09:00 +20°C° 0 mm 5 m/S 737 mmHg 52%
    10:00 +21°C° 0 mm 5 m/S 736 mmHg 47%
    11:00 +22°C° 0 mm 5 m/S 736 mmHg 42%
    12:00 +23°C° 0 mm 5 m/S 735 mmHg 38%
    13:00 +25°C° 0 mm 5 m/S 735 mmHg 35%
    14:00 +27°C° 0 mm 5 m/S 734 mmHg 31%
    15:00 +26°C° 0 mm 5 m/S 734 mmHg 32%
    16:00 +26°C° 0 mm 5 m/S 733 mmHg 32%
    17:00 +25°C° 0 mm 5 m/S 733 mmHg 33%
    18:00 +23°C° 0 mm 5 m/S 734 mmHg 37%
    19:00 +22°C° 0 mm 4 m/S 734 mmHg 40%
    20:00 +21°C° 0 mm 4 m/S 735 mmHg 44%
    21:00 +20°C° 0 mm 4 m/S 735 mmHg 47%
    22:00 +19°C° 0 mm 4 m/S 735 mmHg 49%
    23:00 +19°C° 0 mm 4 m/S 736 mmHg 52%

    übermorgen, 23 Oktober, Dienstag

    Zeit Temperatur Niederschläge Wind Luftdruck Luftfeuchtigkeit
    00:00 +18°C° 0 mm 3 m/S 735 mmHg 55%
    01:00 +18°C° 0 mm 3 m/S 735 mmHg 58%
    02:00 +17°C° 0 mm 3 m/S 735 mmHg 60%
    03:00 +17°C° 0 mm 3 m/S 735 mmHg 63%
    04:00 +16°C° 0 mm 3 m/S 735 mmHg 66%
    05:00 +16°C° 0 mm 3 m/S 735 mmHg 69%
    06:00 +17°C° 0 mm 4 m/S 736 mmHg 65%
    07:00 +18°C° 0 mm 4 m/S 736 mmHg 60%
    08:00 +20°C° 0 mm 4 m/S 737 mmHg 55%
    09:00 +22°C° 0 mm 4 m/S 737 mmHg 48%
    10:00 +25°C° 0 mm 4 m/S 736 mmHg 40%
    11:00 +26°C° 0 mm 4 m/S 736 mmHg 32%
    12:00 +28°C° 0 mm 4 m/S 735 mmHg 29%
    13:00 +29°C° 0 mm 4 m/S 734 mmHg 25%
    14:00 +30°C° 0 mm 4 m/S 733 mmHg 22%
    15:00 +30°C° 0 mm 4 m/S 733 mmHg 22%
    16:00 +29°C° 0 mm 5 m/S 732 mmHg 23%
    17:00 +29°C° 0 mm 5 m/S 732 mmHg 24%
    18:00 +27°C° 0 mm 4 m/S 732 mmHg 28%
    19:00 +26°C° 0 mm 3 m/S 733 mmHg 31%
    20:00 +24°C° 0 mm 3 m/S 733 mmHg 35%
    21:00 +24°C° 0 mm 3 m/S 733 mmHg 39%
    22:00 +22°C° 0 mm 3 m/S 733 mmHg 43%
    23:00 +21°C° 0 mm 3 m/S 733 mmHg 46%

    24 Oktober, Mittwoch

    Zeit Temperatur Niederschläge Wind Luftdruck Luftfeuchtigkeit
    00:00 +21°C° 0 mm 3 m/S 733 mmHg 53%
    01:00 +20°C° 0 mm 3 m/S 733 mmHg 59%
    02:00 +19°C° 0 mm 4 m/S 732 mmHg 65%
    03:00 +19°C° 0 mm 3 m/S 732 mmHg 69%
    04:00 +18°C° 0 mm 3 m/S 732 mmHg 72%
    05:00 +18°C° 0 mm 3 m/S 733 mmHg 75%
    06:00 +19°C° 0 mm 3 m/S 733 mmHg 70%
    07:00 +20°C° 0 mm 4 m/S 733 mmHg 64%
    08:00 +21°C° 0 mm 4 m/S 734 mmHg 59%
    09:00 +23°C° 0 mm 4 m/S 734 mmHg 50%
    10:00 +26°C° 0 mm 4 m/S 733 mmHg 41%
    11:00 +28°C° 0 mm 4 m/S 733 mmHg 33%
    12:00 +29°C° 0 mm 4 m/S 732 mmHg 29%
    13:00 +32°C° 0 mm 4 m/S 731 mmHg 26%
    14:00 +33°C° 0 mm 4 m/S 730 mmHg 22%
    15:00 +32°C° 0 mm 4 m/S 730 mmHg 22%
    16:00 +32°C° 0 mm 4 m/S 730 mmHg 22%
    17:00 +30°C° 0 mm 4 m/S 729 mmHg 23%
    18:00 +29°C° 0 mm 3 m/S 730 mmHg 26%
    19:00 +27°C° 0 mm 3 m/S 730 mmHg 29%
    20:00 +25°C° 0 mm 2 m/S 730 mmHg 32%
    21:00 +24°C° 0 mm 2 m/S 730 mmHg 36%
    22:00 +24°C° 0 mm 2 m/S 730 mmHg 39%
    23:00 +23°C° 0 mm 2 m/S 730 mmHg 43%

    25 Oktober, Donnerstag

    Zeit Temperatur Niederschläge Wind Luftdruck Luftfeuchtigkeit
    00:00 +21°C° 0 mm 2 m/S 730 mmHg 49%
    01:00 +21°C° 0 mm 1 m/S 729 mmHg 54%
    02:00 +21°C° 0 mm 1 m/S 729 mmHg 60%
    03:00 +20°C° 0 mm 1 m/S 729 mmHg 65%
    04:00 +19°C° 0 mm 1 m/S 729 mmHg 69%
    05:00 +19°C° 0 mm 1 m/S 729 mmHg 74%
    06:00 +21°C° 0 mm 1 m/S 730 mmHg 65%
    07:00 +24°C° 0 mm 2 m/S 730 mmHg 56%
    08:00 +26°C° 0 mm 2 m/S 730 mmHg 47%
    09:00 +28°C° 0 mm 2 m/S 730 mmHg 40%
    10:00 +30°C° 0 mm 3 m/S 730 mmHg 33%
    11:00 +33°C° 0 mm 3 m/S 730 mmHg 26%
    12:00 +34°C° 0 mm 3 m/S 729 mmHg 23%
    13:00 +35°C° 0 mm 3 m/S 728 mmHg 21%
    14:00 +36°C° 0 mm 4 m/S 727 mmHg 18%
    15:00 +36°C° 0 mm 4 m/S 727 mmHg 19%
    16:00 +35°C° 0 mm 4 m/S 727 mmHg 19%
    17:00 +35°C° 0 mm 4 m/S 727 mmHg 19%
    18:00 +33°C° 0 mm 3 m/S 727 mmHg 22%
    19:00 +30°C° 0 mm 3 m/S 728 mmHg 25%
    20:00 +28°C° 0 mm 2 m/S 728 mmHg 28%
    21:00 +27°C° 0 mm 2 m/S 729 mmHg 31%
    22:00 +26°C° 0 mm 2 m/S 729 mmHg 33%
    23:00 +25°C° 0 mm 2 m/S 729 mmHg 35%

    26 Oktober, Freitag

    Zeit Temperatur Niederschläge Wind Luftdruck Luftfeuchtigkeit
    00:00 +24°C° 0 mm 2 m/S 729 mmHg 40%
    01:00 +24°C° 0 mm 2 m/S 729 mmHg 45%
    02:00 +23°C° 0 mm 2 m/S 729 mmHg 50%
    03:00 +21°C° 0 mm 2 m/S 729 mmHg 55%
    04:00 +20°C° 0 mm 2 m/S 729 mmHg 61%
    05:00 +20°C° 0 mm 2 m/S 730 mmHg 66%
    06:00 +23°C° 0 mm 2 m/S 730 mmHg 59%
    07:00 +25°C° 0 mm 3 m/S 731 mmHg 52%
    08:00 +27°C° 0 mm 3 m/S 731 mmHg 45%
    09:00 +29°C° 0 mm 4 m/S 731 mmHg 39%
    10:00 +32°C° 0 mm 4 m/S 731 mmHg 34%
    11:00 +33°C° 0 mm 5 m/S 731 mmHg 28%
    12:00 +34°C° 0 mm 5 m/S 730 mmHg 26%
    13:00 +35°C° 0 mm 5 m/S 729 mmHg 24%
    14:00 +36°C° 0 mm 5 m/S 729 mmHg 22%
    15:00 +35°C° 0 mm 5 m/S 729 mmHg 21%
    16:00 +35°C° 0 mm 5 m/S 729 mmHg 21%
    17:00 +34°C° 0 mm 5 m/S 729 mmHg 20%
    18:00 +32°C° 0 mm 5 m/S 729 mmHg 22%
    19:00 +30°C° 0 mm 4 m/S 730 mmHg 25%
    20:00 +28°C° 0 mm 3 m/S 731 mmHg 27%
    21:00 +27°C° 0 mm 4 m/S 731 mmHg 35%
    22:00 +26°C° 0 mm 5 m/S 731 mmHg 44%
    23:00 +26°C° 0 mm 5 m/S 732 mmHg 52%
    Mehr zeigen